This is the latest recevied weather packets stored in our database for station/object KM4KMS. If no packets are shown the sender has not sent any weather packets the latest 10 day(s).
| Time | Temp. | Humidity | Pressure | Rain* | Wind** | Luminosity | Snow |
|---|---|---|---|---|---|---|---|
| 1777979774 | 14.44° C | 93% | 1009.7 hPa | 0 mm | - | 3 W/m² | - |
| 1777979470 | 14.44° C | 93% | 1009.6 hPa | 0 mm | - | 3 W/m² | - |
| 1777979167 | 14.44° C | 91% | 1009.9 hPa | 0 mm | - | 3 W/m² | - |
| 1777978864 | 15° C | 90% | 1009.8 hPa | 1.78 mm | - | 1 W/m² | - |
| 1777978561 | 15° C | 89% | 1010.1 hPa | 1.78 mm | - | 1 W/m² | - |
| 1777978256 | 15° C | 88% | 1010 hPa | 0 mm | - | 0 W/m² | - |
| 1777977953 | 15° C | 86% | 1009.7 hPa | 0 mm | - | 0 W/m² | - |
| 1777977651 | 15° C | 85% | 1009.5 hPa | 0 mm | - | 0 W/m² | - |
| 1777977347 | 15.56° C | 82% | 1009.6 hPa | 0 mm | - | 0 W/m² | - |
| 1777977045 | 16.11° C | 77% | 1009.6 hPa | 0 mm | - | 0 W/m² | - |
| 1777976742 | 16.11° C | 75% | 1009.4 hPa | 0 mm | - | 0 W/m² | - |
| 1777976439 | 16.11° C | 74% | 1009.6 hPa | 0 mm | - | 0 W/m² | - |
| 1777976138 | 16.11° C | 74% | 1009.6 hPa | 0 mm | - | 0 W/m² | - |
| 1777975834 | 16.11° C | 74% | 1009.7 hPa | 0 mm | - | 0 W/m² | - |
| 1777975531 | 16.67° C | 73% | 1008.9 hPa | 0 mm | - | 0 W/m² | - |
| 1777975228 | 16.67° C | 71% | 1008.6 hPa | 0 mm | - | 0 W/m² | - |
| 1777974924 | 16.67° C | 72% | 1008.8 hPa | 0 mm | - | 0 W/m² | - |
| 1777974620 | 16.67° C | 71% | 1008.6 hPa | 0 mm | - | 0 W/m² | - |
| 1777974317 | 16.67° C | 71% | 1008.4 hPa | 0 mm | - | 0 W/m² | - |
| 1777974013 | 16.67° C | 71% | 1008.1 hPa | 0 mm | - | 0 W/m² | - |
| 1777973710 | 16.67° C | 71% | 1008.4 hPa | 0 mm | - | 0 W/m² | - |
| 1777973407 | 16.67° C | 71% | 1008.2 hPa | 0 mm | - | 0 W/m² | - |
| 1777973104 | 16.67° C | 70% | 1008.1 hPa | 0 mm | - | 0 W/m² | - |
| 1777972803 | 16.67° C | 71% | 1008.1 hPa | 0 mm | - | 0 W/m² | - |
| 1777972499 | 16.67° C | 71% | 1008 hPa | 0 mm | - | 0 W/m² | - |
* Rain latest hour (hover to see other rain measurements)
** Current wind speed in m/s (hover to see current wind gust speed)